Wind_Speed
12 12 10 9 9 8 8 7 7 6 5 5 5 5 4 3 3 2 3 2 2 2 2 3 3 4 4 4 4 4 4 5 5 6 6 6 5 5 4 4 4 3 3
12 12 10 9 8 8 8 7 6 6 5 5 5 5 3 2 2 2 2 2 1 1 2 3 4 4 4 3 4 4 4 5 6 7 5 6 6 5 5 4 4 3 3
13 12 11 10 8 7 7 7 6 6 5 5 4 4 3 2 2 2 1 1 1 1 1 2 3 3 3 3 4 4 4 4 6 6 6 6 5 5 5 4 4 4 3
13 12 11 10 9 7 6 6 5 5 4 4 4 4 3 2 1 1 1 1 1 0 1 2 3 3 4 4 4 3 4 4 5 5 6 5 4 4 5 4 4 3 3
13 12 11 10 9 8 6 5 5 5 4 4 4 4 3 2 2 1 1 0 0 0 1 2 2 3 4 4 3 3 3 3 4 5 5 5 4 4 4 4 4 4 4
12 11 11 10 10 9 7 6 6 5 5 4 4 4 3 3 2 2 1 1 1 1 1 2 2 3 3 3 3 3 3 3 4 4 4 5 5 5 4 4 5 5 5
11 11 11 11 10 10 8 6 6 5 5 5 5 5 4 3 3 2 2 2 2 2 1 1 2 3 3 3 3 3 4 3 4 4 4 5 5 4 5 5 5 5 5
11 11 10 10 10 10 8 7 6 5 5 5 5 5 5 4 4 4 3 3 3 3 3 3 3 3 3 4 3 3 4 4 4 4 4 5 5 5 5 5 5 5 5
10 11 11 10 10 10 9 8 7 6 5 5 5 5 5 5 5 5 5 4 4 4 5 4 4 4 4 4 4 4 4 4 4 4 4 5 5 6 7 5 4 5 6
9 10 10 10 10 9 9 8 7 6 6 6 6 6 6 6 5 5 5 5 5 5 5 5 5 5 4 4 4 5 5 5 5 5 5 6 6 6 7 6 5 5 6
9 9 10 10 10 10 9 9 8 7 6 6 6 6 6 6 6 5 6 6 6 6 6 6 6 6 5 5 5 5 5 5 6 6 6 7 7 7 7 7 6 6 6
10 10 10 10 10 10 9 9 9 8 7 7 6 6 6 6 6 5 5 6 6 7 7 6 6 7 7 6 6 6 6 6 6 6 7 7 7 7 8 8 7 7 6
10 10 10 10 10 10 9 9 9 9 8 8 7 7 7 7 7 7 7 6 6 7 7 7 7 7 8 8 8 7 7 7 8 7 8 8 9 9 8 8 8 7 7
11 10 10 10 10 10 10 10 9 9 8 8 8 8 7 7 7 7 7 6 6 7 7 6 7 7 8 9 8 8 8 7 8 8 9 10 9 9 9 9 8 8 7
10 11 11 11 10 10 10 11 10 9 9 8 8 8 8 8 7 7 6 7 7 6 6 6 8 8 7 9 10 10 9 9 9 9 10 10 10 10 10 10 9 9 8
11 11 11 11 10 10 11 11 11 10 10 10 8 8 8 8 7 7 7 6 7 7 8 8 9 9 8 8 9 10 10 10 10 10 10 10 10 10 10 11 10 9 9
12 13 13 12 12 12 12 12 11 10 10 10 9 8 8 8 8 8 8 8 8 8 8 9 9 10 10 10 10 10 10 10 10 10 10 10 10 10 11 11 11 10 10
13 14 15 14 14 13 13 13 12 11 10 10 10 10 10 9 8 9 9 9 9 9 10 10 10 10 10 11 10 10 10 10 10 10 10 11 10 11 11 11 11 11 11
15 15 15 15 14 14 14 14 13 12 11 11 11 11 11 11 10 10 10 10 10 10 11 11 11 10 10 11 11 12 11 11 11 11 11 11 11 11 11 11 11 12 12
16 17 16 16 15 15 15 14 13 13 13 13 12 12 12 12 12 12 12 12 11 12 12 12 13 12 12 12 12 13 12 12 12 12 11 11 12 12 12 13 13 13 13
18 18 17 17 16 16 15 15 15 15 14 13 13 14 14 13 13 13 13 13 12 13 13 14 15 14 14 13 13 13 14 14 13 12 12 12 12 13 13 14 13 13 13
20 19 18 17 17 17 17 16 16 16 15 14 13 14 15 15 14 13 13 14 13 13 13 13 14 15 15 15 14 15 14 14 14 13 13 14 14 14 15 15 14 13 14
20 19 19 18 18 18 18 17 16 16 16 16 15 15 15 15 14 14 14 14 15 14 14 14 15 15 15 16 16 16 15 14 15 14 14 15 15 15 15 14 14 13 14
20 19 19 18 19 19 19 18 17 17 17 17 17 17 17 16 15 15 15 15 15 15 15 15 15 16 16 16 16 16 17 17 16 15 15 16 15 15 15 15 14 14 14
19 19 20 20 20 19 19 19 19 18 18 18 19 18 18 17 17 16 16 16 16 16 16 17 17 16 16 17 17 16 17 17 17 16 15 16 16 17 17 16 16 16 15
20 21 21 21 21 20 19 19 19 19 19 20 20 19 19 19 18 18 18 17 17 17 18 17 17 17 18 18 17 17 17 16 17 16 16 16 17 17 17 16 16 15 15
Wind_Direction
26 27 26 26 24 23 24 26 32 34 32 29 27 29 36 42 53 78 97 108 128 156 172 185 190 188 187 193 192 184 178 178 189 191 187 187 182 178 181 181 183 187 185
24 24 24 23 26 24 22 21 23 26 25 28 28 28 32 44 56 66 80 103 120 151 180 194 207 199 198 198 200 200 191 195 200 196 200 203 199 192 192 192 195 191 194
24 24 25 26 27 26 24 22 21 23 28 30 30 33 41 49 55 60 62 98 114 145 183 193 202 207 206 205 206 210 210 205 207 211 211 211 205 200 198 203 201 202 208
23 24 24 22 21 18 19 23 25 27 27 23 24 28 36 45 50 51 56 96 115 167 209 210 210 212 212 212 215 213 211 213 218 219 217 215 219 210 211 207 210 216 227
23 23 23 20 17 13 10 12 15 16 19 20 12 14 20 12 360 357 6 45 342 272 253 241 218 218 220 221 220 218 219 225 232 228 217 218 221 220 217 223 233 234 241
23 21 21 18 14 12 9 4 5 6 10 8 4 2 2 343 331 329 319 301 293 299 277 244 217 216 222 223 224 224 236 239 228 223 220 217 222 227 229 236 245 248 250
22 18 18 16 13 9 9 10 14 12 5 356 351 350 346 328 319 317 303 293 289 280 266 261 230 229 223 225 230 228 233 233 227 228 214 216 224 230 234 241 248 255 254
19 16 10 11 12 13 17 16 14 9 359 349 342 339 340 331 314 305 297 285 284 272 264 273 268 246 229 232 236 240 244 245 238 240 228 223 227 234 237 242 249 260 257
12 11 8 10 13 17 18 15 12 7 356 346 337 332 333 329 323 304 288 279 277 270 263 261 259 253 239 234 239 242 248 249 252 240 242 238 242 243 243 243 251 260 263
3 4 6 8 12 13 14 14 11 5 357 347 339 333 333 326 323 313 293 276 275 276 272 265 255 254 257 253 254 256 252 252 260 255 246 242 248 250 247 246 255 265 265
360 1 1 4 8 10 8 5 1 357 352 346 343 335 330 324 321 312 293 275 271 273 271 267 257 254 256 257 261 265 256 257 261 253 250 250 251 254 254 252 255 263 267
1 2 1 360 1 5 4 3 358 353 346 342 335 328 324 316 312 304 288 274 268 267 266 266 263 256 255 256 258 263 253 248 254 254 253 255 255 259 256 252 254 260 262
358 358 359 357 355 357 355 355 357 353 347 339 334 327 320 313 309 309 297 284 275 268 264 264 263 258 256 255 254 257 257 257 257 263 259 256 260 261 260 258 254 258 252
355 354 354 353 351 351 350 347 349 348 341 335 331 327 326 316 308 311 305 294 285 275 270 266 267 264 261 259 259 256 260 265 261 258 258 258 262 264 263 261 259 257 249
350 353 352 349 345 343 341 338 338 337 333 327 326 323 320 318 311 304 305 295 285 282 284 285 276 269 268 268 261 257 260 266 262 258 257 257 260 262 261 259 260 260 257
341 341 341 340 338 334 332 332 330 329 329 326 321 319 317 313 312 303 299 293 280 276 276 280 281 275 274 268 262 260 262 264 259 260 262 264 263 261 260 262 262 262 262
334 334 333 333 329 326 327 323 321 320 322 323 318 315 318 313 306 304 299 292 285 281 283 282 278 276 277 271 270 271 268 265 264 266 264 265 267 265 264 265 264 264 268
329 329 328 327 325 323 325 322 318 314 314 316 312 308 308 305 303 301 296 296 290 286 282 281 280 275 274 272 273 271 267 264 263 263 265 265 266 269 267 264 264 266 269
320 322 322 320 318 318 319 317 314 312 310 308 308 306 303 299 296 297 295 294 292 287 282 280 276 273 271 270 269 271 271 270 267 267 269 270 271 271 267 265 270 272 271
313 314 316 314 312 311 310 309 310 309 304 303 303 303 303 299 295 294 292 290 287 285 282 279 275 273 270 269 269 269 267 268 265 265 269 272 270 267 270 272 273 274 271
309 307 310 308 308 308 307 307 306 304 303 302 301 300 301 299 295 293 289 289 288 287 284 275 271 269 268 265 268 270 267 265 263 266 270 272 271 273 274 273 272 272 269
305 305 304 303 304 304 304 303 303 302 301 301 301 300 298 297 294 293 291 289 289 286 283 280 272 269 269 268 267 267 267 266 268 268 269 274 274 273 275 276 273 274 272
300 301 301 300 301 302 301 301 300 300 298 296 296 296 297 298 292 293 291 289 289 285 280 278 275 273 271 267 266 267 266 266 265 268 270 272 272 273 274 275 277 276 276
298 301 300 297 299 298 297 297 297 296 295 293 291 292 293 293 291 291 292 290 288 286 283 279 275 270 270 270 268 269 268 267 265 266 269 270 273 273 273 276 274 275 275
299 298 297 296 296 294 293 293 293 293 292 290 289 288 288 290 288 289 290 288 287 287 284 281 275 272 270 271 271 271 270 268 268 269 270 270 272 274 275 275 273 275 273
295 296 295 295 294 292 289 289 289 288 288 288 287 286 286 285 285 286 285 283 285 286 285 281 275 272 270 271 271 272 272 270 269 269 271 272 271 275 276 274 273 272 273
Height
5896 5894 5893 5892 5891 5890 5890 5889 5888 5888 5887 5886 5885 5884 5884 5884 5883 5883 5883 5883 5883 5883 5883 5884 5884 5883 5883 5884 5884 5884 5884 5884 5884 5884 5884 5885 5885 5885 5885 5886 5886 5886 5886
5897 5895 5894 5893 5892 5891 5890 5889 5889 5888 5888 5887 5886 5885 5885 5884 5884 5884 5884 5883 5883 5883 5883 5883 5883 5883 5883 5883 5883 5884 5884 5884 5884 5884 5884 5884 5885 5885 5885 5885 5885 5885 5885
5897 5896 5894 5893 5892 5891 5890 5890 5889 5889 5888 5887 5887 5886 5885 5885 5884 5884 5884 5884 5883 5883 5883 5883 5883 5883 5883 5883 5883 5883 5883 5883 5884 5884 5884 5884 5884 5884 5885 5885 5885 5885 5885
5898 5896 5895 5894 5893 5892 5891 5890 5890 5889 5888 5888 5887 5886 5886 5885 5885 5884 5884 5884 5883 5883 5883 5883 5883 5883 5883 5883 5883 5883 5883 5883 5883 5883 5884 5884 5884 5884 5884 5884 5884 5884 5884
5899 5897 5896 5895 5893 5892 5891 5890 5890 5889 5888 5888 5887 5887 5886 5885 5885 5885 5884 5884 5884 5883 5883 5883 5883 5882 5882 5883 5882 5882 5882 5882 5883 5883 5883 5883 5884 5884 5884 5884 5883 5883 5883
5900 5898 5897 5895 5893 5892 5891 5890 5890 5889 5888 5888 5887 5887 5886 5885 5885 5885 5884 5884 5884 5883 5883 5882 5882 5882 5882 5882 5882 5882 5882 5882 5882 5882 5882 5882 5883 5883 5883 5883 5883 5883 5882
5901 5900 5898 5896 5893 5891 5890 5890 5889 5889 5888 5888 5887 5887 5886 5885 5885 5884 5884 5884 5883 5883 5882 5882 5882 5882 5882 5881 5881 5881 5881 5881 5881 5881 5881 5882 5882 5882 5882 5882 5882 5882 5881
5902 5900 5898 5896 5894 5891 5890 5890 5889 5889 5888 5888 5887 5886 5886 5885 5884 5884 5883 5883 5883 5882 5882 5882 5881 5881 5881 5881 5881 5881 5881 5880 5880 5881 5881 5881 5881 5881 5881 5881 5881 5881 5880
5902 5901 5899 5897 5894 5893 5891 5890 5890 5889 5888 5888 5887 5886 5885 5885 5884 5883 5883 5882 5882 5882 5881 5881 5881 5880 5880 5880 5880 5880 5880 5880 5879 5880 5880 5880 5880 5880 5879 5879 5880 5879 5879
5902 5901 5899 5897 5895 5894 5892 5891 5890 5889 5888 5887 5887 5886 5885 5884 5883 5882 5882 5882 5881 5881 5880 5880 5880 5879 5879 5879 5879 5879 5879 5879 5879 5879 5879 5879 5878 5878 5878 5878 5878 5878 5878
5902 5901 5899 5898 5896 5894 5893 5891 5890 5889 5888 5887 5886 5885 5884 5883 5882 5882 5881 5880 5880 5880 5879 5879 5878 5878 5878 5878 5878 5878 5877 5877 5877 5877 5877 5877 5877 5877 5876 5876 5876 5876 5876
5902 5900 5898 5897 5896 5894 5893 5891 5890 5889 5888 5887 5885 5884 5883 5883 5882 5881 5880 5879 5879 5878 5877 5877 5877 5877 5877 5877 5877 5876 5876 5876 5876 5876 5876 5876 5875 5875 5874 5874 5874 5874 5874
5902 5900 5899 5897 5896 5894 5893 5891 5890 5889 5887 5886 5885 5884 5883 5882 5880 5879 5878 5878 5877 5876 5876 5876 5875 5875 5875 5875 5875 5875 5875 5874 5875 5875 5874 5874 5874 5873 5873 5873 5873 5873 5873
5901 5899 5898 5897 5896 5894 5893 5891 5890 5888 5887 5886 5884 5883 5882 5881 5879 5878 5877 5876 5876 5875 5874 5874 5874 5873 5873 5873 5873 5873 5873 5873 5873 5873 5872 5872 5872 5872 5871 5871 5871 5871 5871
5900 5899 5897 5896 5895 5893 5892 5890 5889 5888 5886 5884 5883 5881 5880 5879 5878 5877 5876 5875 5874 5874 5873 5873 5872 5872 5871 5871 5871 5871 5871 5871 5871 5871 5870 5870 5870 5869 5869 5869 5869 5869 5869
5899 5898 5896 5895 5894 5892 5891 5889 5887 5885 5884 5883 5881 5880 5879 5878 5876 5875 5874 5873 5873 5872 5872 5871 5871 5870 5870 5870 5869 5869 5869 5869 5869 5868 5868 5868 5868 5867 5867 5867 5866 5866 5866
5898 5896 5895 5893 5892 5890 5889 5887 5885 5884 5882 5881 5879 5878 5877 5876 5875 5874 5873 5872 5871 5870 5870 5869 5869 5868 5867 5867 5867 5866 5866 5866 5866 5866 5865 5865 5865 5865 5864 5864 5864 5864 5863
5896 5894 5893 5891 5889 5888 5886 5885 5883 5881 5880 5879 5877 5876 5875 5874 5873 5872 5871 5870 5869 5868 5867 5867 5866 5865 5865 5865 5864 5864 5864 5864 5863 5863 5863 5863 5863 5862 5862 5861 5861 5861 5860
5893 5892 5891 5889 5887 5885 5884 5882 5881 5879 5878 5877 5875 5873 5872 5871 5870 5869 5868 5867 5866 5865 5865 5864 5863 5863 5862 5862 5862 5861 5861 5861 5861 5860 5860 5860 5860 5859 5859 5858 5858 5858 5857
5890 5889 5888 5886 5884 5883 5881 5879 5878 5877 5875 5874 5872 5871 5869 5868 5867 5867 5865 5864 5863 5862 5861 5860 5860 5860 5859 5859 5858 5858 5858 5858 5858 5858 5858 5857 5857 5856 5856 5855 5855 5855 5854
5887 5886 5884 5882 5881 5880 5878 5876 5875 5874 5872 5871 5870 5868 5867 5866 5864 5863 5862 5861 5860 5859 5858 5858 5857 5856 5856 5855 5855 5855 5854 5854 5855 5855 5854 5854 5853 5853 5852 5852 5851 5851 5850
5884 5882 5880 5879 5877 5876 5874 5873 5871 5870 5869 5867 5866 5865 5863 5862 5861 5860 5859 5858 5857 5856 5855 5854 5854 5853 5852 5852 5852 5851 5851 5851 5851 5851 5851 5850 5850 5849 5849 5848 5847 5846 5846
5880 5878 5876 5875 5873 5872 5870 5869 5868 5866 5865 5864 5862 5861 5859 5858 5857 5856 5855 5854 5853 5852 5851 5850 5850 5849 5849 5848 5848 5848 5847 5847 5847 5848 5847 5847 5846 5846 5845 5844 5843 5842 5842
5875 5874 5872 5870 5869 5868 5866 5864 5863 5862 5861 5859 5858 5856 5855 5854 5853 5852 5851 5850 5849 5848 5847 5846 5846 5845 5845 5844 5844 5844 5844 5844 5843 5843 5843 5843 5842 5841 5841 5840 5839 5838 5837
5872 5870 5868 5866 5864 5863 5861 5860 5858 5857 5856 5854 5853 5852 5851 5850 5849 5848 5847 5846 5844 5844 5843 5842 5841 5841 5840 5840 5839 5839 5839 5839 5839 5838 5838 5838 5837 5837 5836 5836 5835 5834 5833
5867 5865 5863 5861 5858 5857 5855 5854 5852 5852 5851 5849 5848 5847 5846 5845 5844 5843 5842 5840 5839 5839 5838 5837 5836 5836 5835 5835 5834 5834 5834 5834 5834 5834 5834 5833 5833 5832 5832 5831 5830 5830 5829